Tracking 19192 objects as of 19-Jun-2018
HD Live streaming from Space Station
objects crossing your sky now

FENGYUN 1C DEB

Track FENGYUN 1C DEB now!
10-day predictions


NORAD ID: 31473
Int'l Code: 1999-025BVM
Perigee: 788.1 km
Apogee: 900.6 km
Inclination: 98.8 °
Period: 101.7 minutes
Semi major axis: 7215 km
RCS: 0.0215 m2 (small)
Launch date: May 10, 1999
Source: People's Republic of China (PRC)
Launch site: Taiyaun Space Center, China (TSC)

Note: This is SATELLITE DEBRIS
aabbcc
Your satellite tracking list
Your tracking list is empty




NASA's NSSDC Master Catalog

Two Line Element Set (TLE):
1 31473U 99025BVM 18169.97194624  .00000463  00000-0  24779-3 0  9995
2 31473  98.8177 218.8046 0077954 341.2092 138.5938 14.16496801574702
Source of the keplerian elements: AFSPC